| time (UTC) | temp F | wind direction | speed MPH | gust MPH | rain 1hr in | rain 24hr in | rain mn in | humidity % | barometer mb |
| 20260902134824 | 0 | 0.0 | 0.0 | 0.00 | 0.00 | 0.00 | 53 | 1017.2 | |
| 20260902124308 | 0 | 0.0 | 0.0 | 0.00 | 0.00 | 0.00 | 55 | 1017.7 | |
| 20260902122305 | 0 | 0.0 | 0.0 | 0.00 | 0.00 | 0.00 | 55 | 1017.9 | |
| 20260902103236 | 0 | 0.0 | 0.0 | 0.00 | 0.00 | 0.00 | 54 | 1018.5 | |
| 20260902100228 | 0 | 0.0 | 0.0 | 0.00 | 0.00 | 0.00 | 54 | 1018.6 | |
| 20260902094223 | 0 | 0.0 | 0.0 | 0.00 | 0.00 | 0.00 | 55 | 1018.5 | |
| 20260902082203 | 0 | 0.0 | 0.0 | 0.00 | 0.00 | 0.00 | 50 | 1018.4 | |
| 20260902075657 | 0 | 0.0 | 0.0 | 0.00 | 0.00 | 0.00 | 53 | 1018.2 | |
| 20260902075156 | 0 | 0.0 | 0.0 | 0.00 | 0.00 | 0.00 | 54 | 1018.2 | |
| 20260902074153 | 0 | 0.0 | 0.0 | 0.00 | 0.00 | 0.00 | 55 | 1018.1 | |
| 20260902064639 | 0 | 0.0 | 0.0 | 0.00 | 0.00 | 0.00 | 62 | 1018.3 | |
| 20260902063637 | 0 | 0.0 | 0.0 | 0.00 | 0.00 | 0.00 | 61 | 1018.4 | |
| 20260902054124 | 0 | 0.0 | 0.0 | 0.00 | 0.00 | 0.00 | 68 | 1018.4 | |
| 20260902045111 | 0 | 0.0 | 0.0 | 0.00 | 0.00 | 0.00 | 67 | 1017.9 | |
| 20260902044610 | 0 | 0.0 | 0.0 | 0.00 | 0.00 | 0.00 | 67 | 1018.0 | |
| 20260902041101 | 0 | 0.0 | 0.0 | 0.00 | 0.00 | 0.00 | 66 | 1017.8 | |
| 20260902040059 | 0 | 0.0 | 0.0 | 0.00 | 0.00 | 0.00 | 67 | 1017.8 | |
| 20260902035557 | 0 | 0.0 | 0.0 | 0.00 | 0.00 | 0.00 | 67 | 1017.7 | |
| 20260902035056 | 0 | 0.0 | 0.0 | 0.00 | 0.00 | 0.00 | 67 | 1017.8 | |
| 20260902034555 | 0 | 0.0 | 0.0 | 0.00 | 0.00 | 0.00 | 67 | 1017.7 | |
| 20260902033051 | 0 | 0.0 | 0.0 | 0.00 | 0.00 | 0.00 | 67 | 1017.8 | |
| 20260902032550 | 0 | 0.0 | 0.0 | 0.00 | 0.00 | 0.00 | 66 | 1017.9 | |
| 20260902032048 | 0 | 0.0 | 0.0 | 0.00 | 0.00 | 0.00 | 66 | 1017.8 | |
| 20260902025041 | 0 | 0.0 | 0.0 | 0.00 | 0.00 | 0.00 | 65 | 1017.8 | |
| 20260902023036 | 0 | 0.0 | 0.0 | 0.00 | 0.00 | 0.00 | 66 | 1017.8 | |
| 20260902022535 | 0 | 0.0 | 0.0 | 0.00 | 0.00 | 0.00 | 66 | 1017.8 | |
| 20260902020029 | 0 | 0.0 | 0.0 | 0.00 | 0.00 | 0.00 | 65 | 1017.8 | |
| 20260902015527 | 0 | 0.0 | 0.0 | 0.00 | 0.00 | 0.00 | 65 | 1017.9 | |
| 20260902014024 | 0 | 0.0 | 0.0 | 0.00 | 0.00 | 0.00 | 64 | 1017.8 | |
| 20260902013021 | 0 | 0.0 | 0.0 | 0.00 | 0.00 | 0.00 | 64 | 1017.8 | |
| 20260902010515 | 0 | 0.0 | 0.0 | 0.00 | 0.00 | 0.00 | 64 | 1017.6 | |
| 20260902005512 | 0 | 0.0 | 0.0 | 0.00 | 0.00 | 0.00 | 63 | 1017.6 | |
| 20260902001001 | 0 | 0.0 | 0.0 | 0.00 | 0.00 | 0.00 | 62 | 1017.8 | |
| 20260902000500 | 0 | 0.0 | 0.0 | 0.00 | 0.00 | 0.00 | 62 | 1017.7 | |
| 20260901235457 | 0 | 0.0 | 0.0 | 0.00 | 0.00 | 0.00 | 64 | 1017.8 | |
| 20260901234455 | 0 | 0.0 | 0.0 | 0.00 | 0.00 | 0.00 | 65 | 1017.9 | |
| 20260901233452 | 0 | 0.0 | 0.0 | 0.00 | 0.00 | 0.00 | 63 | 1017.8 | |
| 20260901232450 | 0 | 0.0 | 0.0 | 0.00 | 0.00 | 0.00 | 64 | 1017.9 | |
| 20260901225442 | 0 | 0.0 | 0.0 | 0.00 | 0.00 | 0.00 | 62 | 1017.9 | |
| 20260901221934 | 0 | 0.0 | 0.0 | 0.00 | 0.00 | 0.00 | 61 | 1017.8 | |
| 20260901212420 | 0 | 0.0 | 0.0 | 0.00 | 0.00 | 0.00 | 60 | 1017.8 | |
| 20260901210916 | 0 | 0.0 | 0.0 | 0.00 | 0.00 | 0.00 | 60 | 1017.7 | |
| 20260901210415 | 0 | 0.0 | 0.0 | 0.00 | 0.00 | 0.00 | 60 | 1017.7 | |
| 20260901205914 | 0 | 0.0 | 0.0 | 0.00 | 0.00 | 0.00 | 61 | 1017.7 | |
| 20260901205412 | 0 | 0.0 | 0.0 | 0.00 | 0.00 | 0.00 | 61 | 1017.7 | |
| 20260901202906 | 0 | 0.0 | 0.0 | 0.00 | 0.00 | 0.00 | 62 | 1017.8 | |
| 20260901201402 | 0 | 0.0 | 0.0 | 0.00 | 0.00 | 0.00 | 63 | 1017.8 | |
| 20260901194355 | 0 | 0.0 | 0.0 | 0.00 | 0.00 | 0.00 | 64 | 1017.5 | |
| 20260901192350 | 0 | 0.0 | 0.0 | 0.00 | 0.00 | 0.00 | 63 | 1017.4 | |
| 20260901191347 | 0 | 0.0 | 0.0 | 0.00 | 0.00 | 0.00 | 63 | 1017.2 | |
| 20260901183839 | 0 | 0.0 | 0.0 | 0.00 | 0.00 | 0.00 | 61 | 1016.6 | |
| 20260901180330 | 0 | 0.0 | 0.0 | 0.00 | 0.00 | 0.00 | 60 | 1016.4 | |
| 20260901173824 | 0 | 0.0 | 0.0 | 0.00 | 0.00 | 0.00 | 58 | 1016.1 | |
| 20260901171819 | 0 | 0.0 | 0.0 | 0.00 | 0.00 | 0.00 | 55 | 1016.1 | |
| 20260901165313 | 0 | 0.0 | 0.0 | 0.00 | 0.00 | 0.00 | 53 | 1016.0 | |
| 20260901164310 | 0 | 0.0 | 0.0 | 0.00 | 0.00 | 0.00 | 52 | 1016.0 | |
| 20260901163809 | 0 | 0.0 | 0.0 | 0.00 | 0.00 | 0.00 | 52 | 1016.0 | |
| 20260901161303 | 0 | 0.0 | 0.0 | 0.00 | 0.00 | 0.00 | 52 | 1016.1 | |
| 20260901150747 | 0 | 0.0 | 0.0 | 0.00 | 0.00 | 0.00 | 50 | 1016.3 | |
| 20260901144240 | 0 | 0.0 | 0.0 | 0.00 | 0.00 | 0.00 | 50 | 1016.4 | |
| 20260901143238 | 0 | 0.0 | 0.0 | 0.00 | 0.00 | 0.00 | 51 | 1016.5 | |
| 20260901140732 | 0 | 0.0 | 0.0 | 0.00 | 0.00 | 0.00 | 52 | 1016.8 | |
| 20260901135729 | 0 | 0.0 | 0.0 | 0.00 | 0.00 | 0.00 | 52 | 1016.8 |